Location: Killam
(52.7910°N, 111.8608°W)
Time: 05:28:58
(UTC+00:00)

A-11 Canister half - Pass Details

Date: 16 February 2026
Orbit: 1524 x 1683 km, 47.3° (Epoch: 13 March)

Event Time Altitude Azimuth Distance (km) Brightness Sun altitude
Rises 06:10:48 0° 283° (WNW) 4,678 12.0 -45.6°
Reaches altitude 10° 06:14:05 10° 276° (W) 3,697 11.3 -45.9°
Enters shadow 06:17:19 22° 263° (W) 2,854 10.5 -46.2°
Maximum altitude 06:22:19 37° 213° (SSW) 2,215 - -46.5°
Drops below altitude 10° 06:30:43 10° 151° (SSE) 3,755 - -47.1°
Sets 06:34:06 0° 143° (SE) 4,759 - -47.3°
